Regional Weather Roundup
Issued by NWS Cleveland, OH

Home | Current Version | Previous Version | Text Only | Print | Product List | Glossary Off
Versions: 1 2 3 4 5 6 7 8 9 10 11 12 13 14 15 16 17 18 19 20 21 22 23 24 25 26 27 28 29 30 31 32 33 34 35 36 37 38 39 40 41 42 43 44 45 46 47 48 49 50

000
ASUS41 KCLE 210700
RWRCLE
OHIO REGIONAL WEATHER ROUNDUP
NATIONAL WEATHER SERVICE WILMINGTON, OH
300 AM EDT TUE OCT 21 2014

NOTE: "FAIR" INDICATES FEW OR NO CLOUDS BELOW 12,000 FEET WITH NO
SIGNIFICANT WEATHER AND/OR OBSTRUCTIONS TO VISIBILITY.

OHZ001>008-015>018-024>027-034-035-043-044-210800-
   NORTHWEST OHIO

CITY           SKY/WX    TMP DP  RH WIND       PRES   REMARKS
DEFIANCE       PTCLDY    48  42  80 NW7       29.92R
FINDLAY        CLOUDY    52  48  86 W6        29.88S
TOLEDO EXPRESS CLOUDY    49  44  83 N10       29.90R
TOLEDO METCALF CLOUDY    50  44  80 NW9       29.90R
LIMA           CLOUDY    51  47  86 W7        29.90S
$$

OHZ009>014-019>023-028>033-038-089-210800-
   NORTHEAST OHIO

CITY           SKY/WX    TMP DP  RH WIND       PRES   REMARKS
CLE-HOPKINS    LGT RAIN  53  51  93 NW7       29.85S FOG
CLE-LAKEFRONT  CLOUDY    55  50  83 N15       29.82S
CUY CO. ARPT   NOT AVBL
LORAIN-ELYRIA  LGT RAIN  52  51  97 N7        29.85R FOG
ASHTABULA      CLOUDY    51  49  92 CALM      29.83R FOG
AKRON-CANTON   CLOUDY    52  49  89 W5        29.84S FOG
WOOSTER        NOT AVBL
MANSFIELD      CLOUDY    51  50  96 CALM      29.86R FOG
YOUNGSTOWN     LGT RAIN  50  49  96 SW8       29.82F FOG
$$

OHZ042-051>053-060>062-070>072-077>081-210800-
  SOUTHWEST OHIO

CITY           SKY/WX    TMP DP  RH WIND       PRES   REMARKS
CINC-COVINGTON PTCLDY    52  47  83 NW7       29.92S
CINC-LUNKEN    CLOUDY    56  49  77 NW3       29.93R
HAMILTON       CLOUDY    53  50  89 W3        29.93S
DAYTON         NOT AVBL
WRIGHT-PAT AFB NOT AVBL
DAYTON GENERAL CLOUDY    52  49  89 N5        29.91S
WILMINGTON     CLOUDY    52  49  89 NW6       29.91S
$$

OHZ036-037-039>041-045>050-054>059-063>069-073>076-082>088-210800-
  CENTRAL AND SOUTHEAST OHIO

CITY           SKY/WX    TMP DP  RH WIND       PRES   REMARKS
COLUMBUS       MOCLDY    46  45  96 CALM      29.89R FOG
OSU AIRPORT    CLOUDY    48  47  96 W7        29.89R FOG
BOLTON FIELD   NOT AVBL
RICKENBACK AFB NOT AVBL
NEWARK         CLOUDY    49  47  93 CALM      29.88S FOG
MARION         CLOUDY    50  47  89 NW8       29.88S FOG
LANCASTER      CLOUDY    48  46  93 E6        29.88F
ZANESVILLE     CLEAR     47  45  93 SW5       29.88R
NEW PHILLY     CLOUDY    50  49  96 CALM      29.86S
$$



USA.gov is the U.S. government's official web portal to all federal, state and local government web resources and services.